Location: Aranbee
(34.0885°N, 118.2342°W)
Time: 05:31:25
(UTC+00:00)

Vanguard 2 - Visible Passes

Search period start: 27 November 2020 00:00
Search period end: 07 December 2020 00:00
Orbit: 554 x 2937 km, 32.9° (Epoch: 26 November)

Date Brightness Start Highest point End Pass type
(mag) Time Alt. Az. Time Alt. Az. Time Alt. Az.
29 Nov 11.4 14:14:49 10° S 14:19:04 14° SSE 14:22:36 10° SE visible
02 Dec 11.5 12:56:52 10° S 13:03:09 15° SSE 13:08:11 10° ESE visible
03 Dec 11.1 13:12:21 10° SSW 13:21:14 22° SSE 13:27:40 10° ESE visible
04 Dec 11.8 11:27:19 10° SSE 11:28:32 10° SSE 11:29:42 10° SE visible
04 Dec 10.8 13:28:44 10° SSW 13:39:16 30° SSE 13:46:21 10° E visible
05 Dec 11.6 11:38:52 10° S 11:46:39 16° SSE 11:53:02 10° ESE visible
05 Dec 10.4 13:45:41 10° SW 13:57:17 39° SSE 14:04:40 10° E visible
06 Dec 11.2 11:54:06 10° SSW 12:04:43 23° SSE 12:12:41 10° ESE visible
06 Dec 10.0 14:03:01 10° SW 14:15:16 49° SSE 14:22:44 10° E visible
